| time (UTC) | temp F | wind direction | speed knots | gust knots | rain 1hr in | rain 24hr in | rain mn in | humidity % | barometer mb |
| 20260507120016 | 53 | 328 | 2.6 | 6.1 | 0.00 | 0.13 | 0.00 | 65 | 1010.8 |
| 20260507114518 | 53 | 331 | 2.6 | 4.3 | 0.00 | 0.14 | 0.00 | 64 | 1010.9 |
| 20260507113036 | 53 | 311 | 1.7 | 3.5 | 0.00 | 0.16 | 0.00 | 68 | 1010.9 |
| 20260507111516 | 53 | 287 | 1.7 | 3.5 | 0.00 | 0.16 | 0.00 | 63 | 1010.8 |
| 20260507110022 | 53 | 298 | 1.7 | 4.3 | 0.00 | 0.16 | 0.00 | 61 | 1010.6 |
| 20260507104522 | 53 | 291 | 3.5 | 7.0 | 0.00 | 0.16 | 0.00 | 61 | 1010.3 |
| 20260507103022 | 53 | 319 | 3.5 | 7.8 | 0.00 | 0.16 | 0.00 | 62 | 1010.2 |
| 20260507101519 | 53 | 318 | 3.5 | 7.0 | 0.00 | 0.16 | 0.00 | 63 | 1010.0 |
| 20260507100020 | 53 | 304 | 4.3 | 7.0 | 0.00 | 0.16 | 0.00 | 64 | 1009.8 |
| 20260507094521 | 54 | 315 | 2.6 | 6.1 | 0.00 | 0.16 | 0.00 | 65 | 1009.7 |
| 20260507093022 | 54 | 321 | 2.6 | 5.2 | 0.00 | 0.16 | 0.00 | 66 | 1009.8 |
| 20260507091524 | 54 | 294 | 2.6 | 7.0 | 0.00 | 0.16 | 0.00 | 71 | 1009.7 |
| 20260507090024 | 54 | 321 | 0.9 | 7.0 | 0.00 | 0.16 | 0.00 | 77 | 1009.6 |
| 20260507084529 | 55 | 328 | 3.5 | 10.4 | 0.00 | 0.16 | 0.00 | 75 | 1009.5 |
| 20260507083020 | 55 | 346 | 4.3 | 8.7 | 0.00 | 0.16 | 0.00 | 75 | 1009.6 |
| 20260507081533 | 54 | 360 | 4.3 | 10.4 | 0.00 | 0.16 | 0.00 | 79 | 1009.3 |
| 20260507080024 | 54 | 315 | 2.6 | 7.0 | 0.00 | 0.16 | 0.00 | 86 | 1009.0 |
| 20260507074522 | 54 | 24 | 1.7 | 3.5 | 0.00 | 0.16 | 0.00 | 87 | 1008.9 |
| 20260507073021 | 55 | 66 | 0.0 | 1.7 | 0.00 | 0.16 | 0.00 | 86 | 1009.0 |
| 20260507071524 | 55 | 38 | 0.9 | 2.6 | 0.00 | 0.16 | 0.00 | 84 | 1009.1 |
| 20260507070023 | 55 | 5 | 0.0 | 1.7 | 0.00 | 0.16 | 0.00 | 84 | 1009.4 |
| 20260507064522 | 56 | 29 | 0.0 | 2.6 | 0.00 | 0.16 | 0.00 | 80 | 1009.6 |
| 20260507063024 | 56 | 11 | 1.7 | 7.0 | 0.00 | 0.16 | 0.00 | 81 | 1009.4 |
| 20260507061525 | 56 | 333 | 0.0 | 2.6 | 0.00 | 0.16 | 0.00 | 83 | 1009.4 |
| 20260507060022 | 56 | 351 | 0.9 | 3.5 | 0.00 | 0.16 | 0.00 | 82 | 1009.3 |
| 20260507054524 | 57 | 327 | 1.7 | 3.5 | 0.00 | 0.16 | 0.00 | 81 | 1009.2 |
| 20260507053024 | 57 | 349 | 1.7 | 5.2 | 0.00 | 0.16 | 0.00 | 80 | 1009.2 |
| 20260507051510 | 57 | 24 | 2.6 | 8.7 | 0.00 | 0.16 | 0.00 | 80 | 1009.3 |
| 20260507050014 | 57 | 348 | 4.3 | 9.6 | 0.00 | 0.16 | 0.00 | 82 | 1009.1 |
| 20260507044520 | 57 | 15 | 1.7 | 3.5 | 0.00 | 0.16 | 0.00 | 87 | 1009.1 |
| 20260507043027 | 57 | 23 | 0.9 | 2.6 | 0.00 | 0.16 | 0.00 | 87 | 1009.2 |
| 20260507041524 | 58 | 344 | 3.5 | 7.8 | 0.00 | 0.16 | 0.00 | 86 | 1009.2 |
| 20260507040014 | 58 | 316 | 3.5 | 7.8 | 0.00 | 0.16 | 0.00 | 85 | 1009.0 |
| 20260507034522 | 59 | 330 | 3.5 | 9.6 | 0.00 | 0.16 | 0.16 | 84 | 1008.9 |
| 20260507033022 | 59 | 5 | 5.2 | 12.2 | 0.00 | 0.16 | 0.16 | 83 | 1008.7 |
| 20260507031523 | 60 | 5 | 8.7 | 12.2 | 0.00 | 0.16 | 0.16 | 82 | 1008.9 |
| 20260507030026 | 60 | 350 | 5.2 | 10.4 | 0.00 | 0.16 | 0.16 | 82 | 1008.9 |
| 20260507024519 | 60 | 315 | 2.6 | 7.8 | 0.00 | 0.16 | 0.16 | 81 | 1008.5 |
| 20260507023017 | 61 | 304 | 3.5 | 10.4 | 0.00 | 0.16 | 0.16 | 81 | 1008.4 |
| 20260507021522 | 61 | 323 | 7.8 | 13.0 | 0.00 | 0.16 | 0.16 | 81 | 1008.5 |
| 20260507020042 | 61 | 321 | 9.6 | 15.6 | 0.00 | 0.16 | 0.16 | 81 | 1008.1 |
| 20260507014525 | 62 | 338 | 8.7 | 13.0 | 0.00 | 0.16 | 0.16 | 81 | 1008.1 |
| 20260507013021 | 62 | 11 | 2.6 | 5.2 | 0.00 | 0.16 | 0.16 | 81 | 1008.2 |
| 20260507011534 | 62 | 30 | 5.2 | 9.6 | 0.00 | 0.16 | 0.16 | 80 | 1008.1 |
| 20260507010024 | 63 | 291 | 1.7 | 12.2 | 0.00 | 0.16 | 0.16 | 81 | 1008.4 |
| 20260507004523 | 63 | 346 | 6.1 | 12.2 | 0.00 | 0.16 | 0.16 | 81 | 1008.2 |
| 20260507003016 | 63 | 350 | 5.2 | 10.4 | 0.00 | 0.16 | 0.16 | 83 | 1007.9 |
| 20260507001545 | 64 | 317 | 7.0 | 10.4 | 0.00 | 0.16 | 0.16 | 84 | 1007.6 |
| 20260507000024 | 64 | 265 | 7.0 | 12.2 | 0.00 | 0.16 | 0.16 | 85 | 1007.2 |
| 20260506234523 | 66 | 332 | 6.1 | 12.2 | 0.00 | 0.16 | 0.16 | 86 | 1006.6 |
| 20260506233012 | 66 | 302 | 7.8 | 11.3 | 0.00 | 0.16 | 0.16 | 88 | 1006.4 |
| 20260506231518 | 66 | 246 | 3.5 | 7.8 | 0.00 | 0.16 | 0.16 | 91 | 1006.4 |
| 20260506230021 | 66 | 263 | 1.7 | 3.5 | 0.00 | 0.16 | 0.16 | 92 | 1006.3 |
| 20260506224508 | 66 | 290 | 0.0 | 2.6 | 0.00 | 0.16 | 0.16 | 91 | 1006.2 |
| 20260506223006 | 66 | 290 | 0.9 | 2.6 | 0.00 | 0.16 | 0.16 | 91 | 1006.2 |
| 20260506221512 | 66 | 279 | 1.7 | 3.5 | 0.00 | 0.16 | 0.16 | 91 | 1006.3 |
| 20260506220018 | 66 | 273 | 0.9 | 2.6 | 0.00 | 0.16 | 0.16 | 91 | 1006.1 |
| 20260506214502 | 66 | 257 | 0.0 | 3.5 | 0.00 | 0.16 | 0.16 | 91 | 1006.0 |
| 20260506213005 | 66 | 281 | 0.9 | 2.6 | 0.00 | 0.16 | 0.16 | 90 | 1005.9 |
| 20260506211507 | 66 | 221 | 1.7 | 4.3 | 0.00 | 0.16 | 0.16 | 90 | 1005.6 |
| 20260506210027 | 66 | 232 | 1.7 | 6.1 | 0.00 | 0.16 | 0.16 | 90 | 1005.6 |
| 20260506204519 | 66 | 231 | 2.6 | 5.2 | 0.00 | 0.16 | 0.16 | 90 | 1005.3 |
| 20260506203008 | 66 | 201 | 0.9 | 5.2 | 0.00 | 0.16 | 0.16 | 90 | 1005.4 |
| 20260506201510 | 66 | 169 | 2.6 | 7.0 | 0.00 | 0.16 | 0.16 | 89 | 1005.5 |
| 20260506200012 | 66 | 248 | 3.5 | 8.7 | 0.00 | 0.16 | 0.16 | 90 | 1005.5 |
| 20260506194517 | 66 | 215 | 3.5 | 7.8 | 0.00 | 0.16 | 0.16 | 90 | 1005.5 |
| 20260506193032 | 65 | 182 | 4.3 | 7.8 | 0.00 | 0.16 | 0.16 | 91 | 1005.7 |
| 20260506191510 | 65 | 247 | 4.3 | 7.0 | 0.00 | 0.16 | 0.16 | 92 | 1005.6 |
| 20260506190011 | 65 | 214 | 3.5 | 7.8 | 0.00 | 0.16 | 0.16 | 91 | 1005.8 |
| 20260506184515 | 65 | 211 | 5.2 | 11.3 | 0.00 | 0.16 | 0.16 | 90 | 1005.8 |
| 20260506183019 | 66 | 219 | 7.0 | 13.9 | 0.00 | 0.16 | 0.16 | 89 | 1005.7 |
| 20260506181535 | 66 | 199 | 6.1 | 12.2 | 0.00 | 0.16 | 0.16 | 89 | 1005.8 |
| 20260506180010 | 65 | 213 | 7.0 | 13.9 | 0.00 | 0.16 | 0.16 | 89 | 1005.7 |
| 20260506174510 | 64 | 225 | 4.3 | 12.2 | 0.00 | 0.16 | 0.16 | 91 | 1005.8 |
| 20260506173016 | 64 | 203 | 4.3 | 15.6 | 0.00 | 0.16 | 0.16 | 91 | 1005.9 |
| 20260506171520 | 64 | 217 | 5.2 | 13.9 | 0.00 | 0.16 | 0.16 | 91 | 1005.9 |
| 20260506170027 | 63 | 209 | 6.1 | 17.4 | 0.00 | 0.16 | 0.16 | 91 | 1005.9 |
| 20260506164532 | 63 | 213 | 5.2 | 15.6 | 0.00 | 0.16 | 0.16 | 92 | 1005.9 |
| 20260506163014 | 62 | 225 | 7.0 | 17.4 | 0.00 | 0.16 | 0.16 | 91 | 1006.0 |
| 20260506161522 | 62 | 244 | 8.7 | 15.6 | 0.00 | 0.16 | 0.16 | 92 | 1005.8 |
| 20260506160021 | 62 | 179 | 8.7 | 15.6 | 0.00 | 0.16 | 0.16 | 92 | 1006.2 |
| 20260506154528 | 61 | 205 | 5.2 | 14.8 | 0.00 | 0.16 | 0.16 | 92 | 1006.4 |
| 20260506153014 | 61 | 192 | 5.2 | 14.8 | 0.01 | 0.16 | 0.16 | 93 | 1006.1 |
| 20260506151517 | 61 | 210 | 7.0 | 19.1 | 0.02 | 0.16 | 0.16 | 93 | 1006.2 |
| 20260506150021 | 61 | 226 | 5.2 | 12.2 | 0.03 | 0.16 | 0.16 | 93 | 1006.0 |
| 20260506144527 | 61 | 236 | 5.2 | 13.9 | 0.03 | 0.16 | 0.16 | 93 | 1006.4 |
| 20260506141525 | 61 | 209 | 7.0 | 14.8 | 0.03 | 0.14 | 0.14 | 93 | 1006.8 |
| 20260506133025 | 61 | 194 | 4.3 | 13.9 | 0.05 | 0.12 | 0.12 | 93 | 1006.5 |
| 20260506131524 | 60 | 148 | 4.3 | 10.4 | 0.06 | 0.11 | 0.11 | 93 | 1006.6 |
| 20260506124518 | 61 | 147 | 4.3 | 10.4 | 0.06 | 0.08 | 0.08 | 92 | 1006.6 |
| 20260506123022 | 61 | 215 | 3.5 | 12.2 | 0.07 | 0.07 | 0.07 | 92 | 1006.5 |
| 20260506121524 | 62 | 167 | 3.5 | 10.4 | 0.05 | 0.05 | 0.05 | 91 | 1006.6 |